[[{"header":{"parameterUnit":"m.s-1","parameterCategory":1,"la1":30.2991,"la2":30.254,"lo1":-89.0895,"lo2":-89.0444,"dy":0.0017,"dx":0.0017,"nx":28,"ny":28,"refTime":"2025-09-08T03:00:00:Z","depth":0,"parameterNumber":2,"parameterNumberName":"U-component_of_WINDS"},"data":[0,0,0,0,0,0,0,0,0,0,0,0,0,0,0,0,0,0,0,0,0,0,0,0,0,0,0,0,0,0,0,0,0,0,0,0,0,0,0,0,0,0,0,0,0,0,0,0,0,0,0,0,0,0,0,0,0,0,-1.081,-1.0809,0,-1.0751,-1.075,-1.0749,-1.0682,-1.0681,-1.068,-1.0679,-1.0619,-1.0618,-1.0618,0,0,0,0,0,0,0,0,0,0,0,0,0,-1.0864,-1.0863,-1.081,-1.0809,-1.0808,-1.0751,-1.075,-1.0749,-1.0682,-1.0681,-1.068,-1.0679,-1.0619,-1.0619,-1.0618,0,0,0,0,0,0,0,0,0,0,0,0,0,-1.0826,-1.0863,-1.081,-1.0768,-1.0764,-1.0751,-1.075,-1.0749,-1.0683,-1.0681,-1.068,-1.0678,-1.062,-1.0619,-1.0618,-1.0641,0,0,-1.0615,-1.0614,0,0,0,0,0,0,0,0,-1.0829,-1.0824,-1.0775,-1.0771,-1.0766,-1.0722,-1.0747,-1.0713,-1.0683,-1.0714,-1.0679,-1.0678,-1.0655,-1.0651,-1.0643,-1.0638,-1.0636,-1.0614,-1.0614,-1.0613,-1.0613,0,0,0,0,0,0,0,-1.0831,-1.0827,-1.0786,-1.0774,-1.0769,-1.0752,-1.0745,-1.074,-1.0693,-1.0711,-1.0706,-1.07,-1.0652,-1.0644,-1.0641,-1.0635,-1.0614,-1.0614,-1.0613,-1.0613,-1.0644,-1.0645,0,0,0,0,0,0,-1.084,-1.0829,-1.0788,-1.0785,-1.0794,-1.0752,-1.0744,-1.0738,-1.0693,-1.0685,-1.0701,-1.0697,-1.0646,-1.0642,-1.0639,-1.0661,-1.0613,-1.0612,-1.0612,-1.0643,-1.0644,-1.0646,0,0,0,0,0,0,-1.0842,-1.0837,-1.0791,-1.0805,-1.0798,-1.0753,-1.0746,-1.0737,-1.0729,-1.0686,-1.0677,-1.0701,-1.0645,-1.064,-1.064,-1.0658,-1.0612,-1.0611,-1.0641,-1.0643,-1.0645,-1.0708,0,0,0,0,0,0,-1.0843,-1.0838,-1.0847,-1.0806,-1.0798,-1.0794,-1.0747,-1.0737,-1.0728,-1.0722,-1.0684,-1.0676,-1.0644,-1.0642,-1.0639,-1.0656,-1.061,-1.0639,-1.0642,-1.0644,-1.0704,-1.0712,-1.0719,0,0,0,0,0,-1.0846,-1.0868,-1.0848,-1.0843,-1.0808,-1.0795,-1.079,-1.0752,-1.073,-1.0738,-1.0709,-1.0677,-1.0657,-1.0643,-1.0639,-1.0656,-1.0638,-1.0641,-1.0644,-1.0701,-1.0711,-1.0719,0,0,0,0,0,0,-1.0912,-1.0862,-1.0839,-1.0848,-1.0827,-1.0784,-1.0793,-1.0764,-1.0748,-1.0743,-1.0697,-1.0689,-1.0694,-1.0675,-1.066,-1.0675,-1.0643,-1.0645,-1.0687,-1.0696,-1.0703,-1.0707,-1.0609,0,0,0,0,0,-1.0928,-1.0922,-1.0878,-1.0891,-1.0881,-1.0839,-1.0832,-1.0805,-1.078,-1.077,-1.0742,-1.072,-1.0707,-1.0701,-1.0688,-1.0701,-1.0691,-1.0711,-1.0718,-1.0724,-1.0727,-1.073,-1.0738,-1.0657,-1.0657,-1.0657,0,0,-1.096,-1.0932,-1.0931,-1.0903,-1.0883,-1.0877,-1.0832,-1.0828,-1.0823,-1.077,-1.0768,-1.0746,-1.0718,-1.0724,-1.0726,-1.0709,-1.0747,-1.0729,-1.0734,-1.0733,-1.0734,-1.0742,-1.0749,-1.0659,-1.0658,-1.0658,0,0,-1.1016,-1.0995,-1.1002,-1.0982,-1.0952,-1.0924,-1.0926,-1.0887,-1.087,-1.0868,-1.0827,-1.082,-1.0802,-1.0782,-1.077,-1.0817,-1.0786,-1.0814,-1.0852,-1.0856,-1.0863,-1.0868,-1.0883,-1.0889,-1.0817,-1.0817,-1.0817,0,-1.106,-1.105,-1.1009,-1.1007,-1.0995,-1.0947,-1.0953,-1.0936,-1.0903,-1.0896,-1.0877,-1.0851,-1.0829,-1.0829,-1.084,-1.0833,-1.0832,-1.0818,-1.0865,-1.087,-1.0874,-1.0888,-1.0894,-1.0821,-1.082,-1.082,-1.082,0,-1.1105,-1.1098,-1.1108,-1.1076,-1.1066,-1.1068,-1.1027,-1.1021,-1.0994,-1.0968,-1.0965,-1.0936,-1.0915,-1.0913,-1.0888,-1.0909,-1.0899,-1.0874,-1.084,-1.0886,-1.0898,-1.0903,-1.0826,-1.0824,-1.0823,-1.0823,0,0,-1.12,-1.1146,-1.115,-1.1134,-1.1097,-1.109,-1.109,-1.1069,-1.1064,-1.1043,-1.1041,-1.1025,-1.1,-1.0987,-1.0958,-1.0962,-1.0998,-1.0935,-1.0934,-1.0946,-1.1018,-1.1036,-1.1043,-1.0978,-1.0979,-1.098,-1.102,0,-1.1248,-1.1244,-1.1207,-1.1213,-1.1206,-1.1159,-1.1158,-1.1135,-1.111,-1.11,-1.1072,-1.1061,-1.103,-1.1021,-1.1023,-1.0994,-1.1012,-1.0991,-1.0974,-1.0974,-1.0981,-1.105,-1.107,-1.1109,-1.1024,-1.1025,-1.1026,0,-1.1303,-1.1284,-1.129,-1.1251,-1.1246,-1.1246,-1.1223,-1.1214,-1.1186,-1.1168,-1.1152,-1.1119,-1.1115,-1.1085,-1.1077,-1.1063,-1.1054,-1.1039,-1.1039,-1.1035,-1.1002,-1.1046,-1.112,-1.1126,-1.1033,-1.1032,-1.1032,0,-1.137,-1.1346,-1.1346,-1.1334,-1.1289,-1.129,-1.1271,-1.1242,-1.1231,-1.1211,-1.1203,-1.1183,-1.1172,-1.1157,-1.1119,-1.1101,-1.1115,-1.1082,-1.1099,-1.11,-1.1103,-1.1103,-1.1175,-1.11,-1.11,-1.11,-1.11,0,-1.1426,-1.1431,-1.1375,-1.1375,-1.1378,-1.1335,-1.134,-1.1316,-1.129,-1.1284,-1.1243,-1.1238,-1.1189,-1.1178,-1.1149,-1.1146,-1.1142,-1.1126,-1.1117,-1.1128,-1.113,-1.1121,-1.1116,-1.1102,-1.1101,-1.1101,-1.1101,0,-1.1501,-1.1464,-1.146,-1.1417,-1.1407,-1.1411,-1.1374,-1.1371,-1.1344,-1.1336,-1.1332,-1.1288,-1.1273,-1.1234,-1.1209,-1.1189,-1.1194,-1.118,-1.1203,-1.1197,-1.1215,-1.1213,-1.1283,-1.1289,-1.1212,-1.1213,-1.1214,0,-1.1538,-1.1541,-1.1498,-1.149,-1.1473,-1.1462,-1.1451,-1.1408,-1.1398,-1.1365,-1.1366,-1.1348,-1.133,-1.1308,-1.1274,-1.1254,-1.1238,-1.1263,-1.1234,-1.1245,-1.1236,-1.1235,-1.1234,-1.127,-1.1271,-1.1271,-1.1272,0,-1.1608,-1.1589,-1.1574,-1.1553,-1.154,-1.1521,-1.15,-1.1496,-1.1448,-1.1439,-1.1422,-1.1409,-1.1383,-1.1364,-1.1338,-1.1318,-1.1287,-1.1282,-1.1284,-1.1294,-1.1307,-1.1298,-1.1218,-1.128,-1.1279,-1.1279,-1.1278,-1.1278,-1.1664,-1.1663,-1.1632,-1.1616,-1.1596,-1.1577,-1.1571,-1.1543,-1.1529,-1.1503,-1.1479,-1.1465,-1.1435,-1.1397,-1.1379,-1.1367,-1.1351,-1.1355,-1.1355,-1.1356,-1.136,-1.131,-1.1362,-1.1362,-1.1361,-1.1361,-1.1361,0,-1.1729,-1.1707,-1.1693,-1.1664,-1.1652,-1.1624,-1.1598,-1.1589,-1.1577,-1.1552,-1.1536,-1.1516,-1.1497,-1.1461,-1.1439,-1.1436,-1.1421,-1.1431,-1.143,-1.1425,-1.1377,-1.1376,-1.1444,-1.1444,-1.1444,-1.1444,-1.1444,-1.1444,-1.1762,-1.1758,-1.1736,-1.1721,-1.1699,-1.1684,-1.1672,-1.1653,-1.1633,-1.1612,-1.1597,-1.1573,-1.1543,-1.1518,-1.1499,-1.1489,-1.1482,-1.1497,-1.1482,-1.1437,-1.1429,-1.1422,-1.1421,-1.1496,-1.1496,-1.1531,-1.1531,-1.1532]},{"header":{"parameterUnit":"m.s-1","parameterCategory":1,"la1":30.2991,"la2":30.254,"lo1":-89.0895,"lo2":-89.0444,"dy":0.0017,"dx":0.0017,"nx":28,"ny":28,"refTime":"2025-09-08T03:00:00:Z","depth":0,"parameterNumber":3,"parameterNumberName":"V-component_of_WINDS"},"data":[0,0,0,0,0,0,0,0,0,0,0,0,0,0,0,0,0,0,0,0,0,0,0,0,0,0,0,0,0,0,0,0,0,0,0,0,0,0,0,0,0,0,0,0,0,0,0,0,0,0,0,0,0,0,0,0,0,0,-2.5021,-2.5021,0,-2.5023,-2.5023,-2.5023,-2.5021,-2.5021,-2.5021,-2.5021,-2.5022,-2.5022,-2.5022,0,0,0,0,0,0,0,0,0,0,0,0,0,-2.5014,-2.5014,-2.5021,-2.5021,-2.5021,-2.5023,-2.5023,-2.5023,-2.5021,-2.5021,-2.5021,-2.5021,-2.5022,-2.5022,-2.5022,0,0,0,0,0,0,0,0,0,0,0,0,0,-2.5017,-2.5014,-2.5021,-2.5021,-2.5021,-2.5023,-2.5023,-2.5023,-2.5021,-2.5021,-2.5021,-2.5021,-2.5022,-2.5022,-2.5022,-2.5026,0,0,-2.5023,-2.5023,0,0,0,0,0,0,0,0,-2.5017,-2.5017,-2.5021,-2.5021,-2.5021,-2.5022,-2.5021,-2.5024,-2.5021,-2.5021,-2.5021,-2.5021,-2.5022,-2.5022,-2.5023,-2.5026,-2.5026,-2.5023,-2.5023,-2.5023,-2.5023,0,0,0,0,0,0,0,-2.5017,-2.5017,-2.5022,-2.5021,-2.5021,-2.502,-2.502,-2.5022,-2.5022,-2.5021,-2.5021,-2.5021,-2.5022,-2.5023,-2.5023,-2.5026,-2.5023,-2.5023,-2.5023,-2.5023,-2.503,-2.503,0,0,0,0,0,0,-2.5017,-2.5017,-2.5022,-2.5022,-2.5018,-2.502,-2.502,-2.5022,-2.5022,-2.5022,-2.5021,-2.5021,-2.5022,-2.5023,-2.5023,-2.5026,-2.5023,-2.5023,-2.5023,-2.503,-2.503,-2.503,0,0,0,0,0,0,-2.5016,-2.5017,-2.5022,-2.502,-2.502,-2.502,-2.5022,-2.5022,-2.5022,-2.5022,-2.5022,-2.5022,-2.5022,-2.5023,-2.5025,-2.5026,-2.5023,-2.5023,-2.503,-2.503,-2.503,-2.5033,0,0,0,0,0,0,-2.5016,-2.5017,-2.5019,-2.502,-2.502,-2.5024,-2.5022,-2.5022,-2.5023,-2.5023,-2.5023,-2.5023,-2.5022,-2.5025,-2.5025,-2.5026,-2.5023,-2.503,-2.503,-2.503,-2.5033,-2.5033,-2.5034,0,0,0,0,0,-2.5016,-2.502,-2.5019,-2.502,-2.5022,-2.5025,-2.5025,-2.5024,-2.5023,-2.5024,-2.5024,-2.5023,-2.5026,-2.5025,-2.5025,-2.5027,-2.503,-2.503,-2.503,-2.5033,-2.5033,-2.5034,0,0,0,0,0,0,-2.5019,-2.502,-2.5019,-2.5023,-2.5024,-2.5024,-2.5026,-2.5025,-2.5026,-2.5026,-2.5025,-2.5025,-2.5027,-2.5027,-2.5026,-2.5029,-2.5028,-2.5028,-2.5029,-2.503,-2.503,-2.503,-2.5023,0,0,0,0,0,-2.502,-2.5022,-2.5023,-2.5026,-2.5026,-2.5026,-2.5027,-2.5026,-2.5027,-2.5027,-2.5027,-2.5028,-2.5028,-2.5029,-2.503,-2.5033,-2.5033,-2.5034,-2.5034,-2.5035,-2.5035,-2.5036,-2.5036,-2.5031,-2.5031,-2.5031,0,0,-2.5022,-2.5023,-2.5024,-2.5026,-2.5027,-2.5029,-2.5026,-2.5028,-2.5029,-2.5028,-2.503,-2.5029,-2.503,-2.5032,-2.5033,-2.5032,-2.5036,-2.5035,-2.5035,-2.5035,-2.5036,-2.5036,-2.5037,-2.5031,-2.5031,-2.5031,0,0,-2.5027,-2.5028,-2.5031,-2.5031,-2.5032,-2.5032,-2.5032,-2.5033,-2.5033,-2.5035,-2.5033,-2.5034,-2.5036,-2.5036,-2.5036,-2.504,-2.5038,-2.504,-2.5042,-2.5043,-2.5043,-2.5043,-2.5044,-2.5045,-2.504,-2.504,-2.504,0,-2.503,-2.5033,-2.5032,-2.5034,-2.5035,-2.5033,-2.5035,-2.5036,-2.5036,-2.5037,-2.5036,-2.5037,-2.5037,-2.5039,-2.504,-2.5041,-2.5041,-2.504,-2.5043,-2.5043,-2.5044,-2.5045,-2.5045,-2.504,-2.504,-2.504,-2.504,0,-2.5035,-2.5037,-2.5039,-2.504,-2.5041,-2.5043,-2.5042,-2.5043,-2.5042,-2.5042,-2.5043,-2.5043,-2.5043,-2.5044,-2.5043,-2.5045,-2.5045,-2.5043,-2.5042,-2.5044,-2.5045,-2.5045,-2.5041,-2.5041,-2.5041,-2.504,0,0,-2.5043,-2.5043,-2.5043,-2.5043,-2.5044,-2.5045,-2.5046,-2.5047,-2.5047,-2.5048,-2.5049,-2.505,-2.5048,-2.5049,-2.5048,-2.5048,-2.505,-2.5047,-2.5047,-2.5047,-2.5052,-2.5053,-2.5053,-2.505,-2.505,-2.505,-2.5052,0,-2.5047,-2.505,-2.5049,-2.5052,-2.5053,-2.5051,-2.5052,-2.5052,-2.5052,-2.5052,-2.5051,-2.5052,-2.5051,-2.5051,-2.5051,-2.505,-2.5051,-2.505,-2.505,-2.505,-2.505,-2.5054,-2.5055,-2.5057,-2.5052,-2.5052,-2.5052,0,-2.5053,-2.5053,-2.5056,-2.5056,-2.5056,-2.5057,-2.5057,-2.5058,-2.5058,-2.5057,-2.5057,-2.5056,-2.5056,-2.5054,-2.5055,-2.5054,-2.5054,-2.5053,-2.5053,-2.5053,-2.5051,-2.5053,-2.5058,-2.5058,-2.5053,-2.5053,-2.5053,0,-2.5057,-2.5059,-2.506,-2.506,-2.506,-2.506,-2.506,-2.506,-2.506,-2.506,-2.506,-2.506,-2.5059,-2.5059,-2.5057,-2.5056,-2.5058,-2.5056,-2.5057,-2.5057,-2.5057,-2.5057,-2.5061,-2.5058,-2.5058,-2.5058,-2.5058,0,-2.5062,-2.5064,-2.5062,-2.5063,-2.5064,-2.5063,-2.5065,-2.5064,-2.5063,-2.5064,-2.5062,-2.5062,-2.506,-2.506,-2.5059,-2.5059,-2.5059,-2.5059,-2.5058,-2.5059,-2.5059,-2.5058,-2.5058,-2.5058,-2.5058,-2.5058,-2.5058,0,-2.5067,-2.5066,-2.5068,-2.5067,-2.5066,-2.5068,-2.5067,-2.5067,-2.5066,-2.5067,-2.5067,-2.5065,-2.5065,-2.5063,-2.5063,-2.5062,-2.5062,-2.5062,-2.5063,-2.5062,-2.5063,-2.5063,-2.5067,-2.5067,-2.5063,-2.5063,-2.5064,0,-2.507,-2.5071,-2.507,-2.507,-2.507,-2.5071,-2.5071,-2.5069,-2.5069,-2.5068,-2.5069,-2.5068,-2.5068,-2.5068,-2.5066,-2.5065,-2.5065,-2.5066,-2.5064,-2.5065,-2.5064,-2.5064,-2.5064,-2.5066,-2.5066,-2.5066,-2.5066,0,-2.5075,-2.5074,-2.5075,-2.5075,-2.5075,-2.5074,-2.5074,-2.5074,-2.5072,-2.5072,-2.5072,-2.5072,-2.5071,-2.5071,-2.5069,-2.5069,-2.5067,-2.5067,-2.5067,-2.5067,-2.5068,-2.5067,-2.5063,-2.5067,-2.5067,-2.5067,-2.5067,-2.5067,-2.5079,-2.5079,-2.5079,-2.5079,-2.5078,-2.5078,-2.5078,-2.5077,-2.5077,-2.5077,-2.5076,-2.5075,-2.5074,-2.5072,-2.5072,-2.5071,-2.507,-2.507,-2.507,-2.507,-2.507,-2.5068,-2.5071,-2.5071,-2.5071,-2.5071,-2.5071,0,-2.5083,-2.5083,-2.5083,-2.5082,-2.5082,-2.5081,-2.508,-2.508,-2.508,-2.5079,-2.5079,-2.5078,-2.5077,-2.5076,-2.5075,-2.5074,-2.5074,-2.5074,-2.5074,-2.5074,-2.5071,-2.5071,-2.5075,-2.5075,-2.5075,-2.5075,-2.5075,-2.5075,-2.5086,-2.5087,-2.5086,-2.5086,-2.5085,-2.5085,-2.5085,-2.5084,-2.5083,-2.5083,-2.5082,-2.5081,-2.508,-2.5078,-2.5077,-2.5077,-2.5076,-2.5077,-2.5076,-2.5074,-2.5074,-2.5074,-2.5073,-2.5077,-2.5077,-2.5079,-2.5079,-2.5079]}]]